Willimantic, CT

5:55 AM EDT on March 30, 2017 (GMT -0400)
Windham

Weather History for KIJD - September, 2013

Change the Weather History Date:

Tuesday, September 10, 2013

  Actual Average Record
Temperature  
Mean Temperature 64 °F -  
Max Temperature 75 °F 74 °F 89 °F (1959)
Min Temperature 54 °F 49 °F 32 °F (1956)
Growing Degree Days 14 (Base 50)    
Moisture  
Dew Point 63 °F    
Average Humidity 89    
Maximum Humidity 100    
Minimum Humidity 78    
Precipitation  
Precipitation 0.12 in - - ()
Sea Level Pressure  
Sea Level Pressure 30.12 in    
Wind  
Wind Speed 3 mph (SSW)    
Max Wind Speed 12 mph    
Max Gust Speed -    
Visibility 8 miles    
Events Rain    
Averages and records for this station are not official NWS values.
T = Trace of Precipitation, MM = Missing Value Source: NWS Daily Summary

Daily Weather History Graph

Daily Weather History Graph

Search for Another Location

Airport or City:

Trip Planner

Search our weather history database for the weather conditions in past years. The results will help you decide how hot, cold, wet, or windy it might be!

Date:

Astronomy

Sep. 10, 2013 Rise Set
Actual Time 6:24 AM EDT 7:06 PM EDT
Civil Twilight 5:55 AM EDT 7:34 PM EDT
Nautical Twilight 5:22 AM EDT 8:07 PM EDT
Astronomical Twilight 4:48 AM EDT 8:41 PM EDT
Moon 11:51 AM EDT (9/10) 10:01 PM EDT (9/10)
Length of Visible Light 13h 38m
Length of Day
12h 42m
Waxing Crescent, 28% of the Moon is Illuminated
Sep 10
Waxing Crescent
Sep 12
First Quarter
Sep 19
Full
Sep 26
Last Quarter
Oct 4
New

Hourly Weather History & Observations

Time (EDT) Temp. Dew Point Humidity Pressure Visibility Wind Dir Wind Speed Gust Speed Precip Events Conditions
12:52 AM 54.0 °F 51.1 °F 90% 30.18 in 10.0 mi Calm Calm - N/A   Mostly Cloudy
1:52 AM 55.0 °F 52.0 °F 89% 30.17 in 10.0 mi Calm Calm - N/A   Overcast
2:52 AM 55.9 °F 53.1 °F 90% 30.17 in 10.0 mi Calm Calm - N/A   Overcast
3:52 AM 57.9 °F 54.0 °F 87% 30.15 in 10.0 mi Calm Calm - N/A   Overcast
4:25 AM 57.2 °F 55.4 °F 94% 30.15 in 10.0 mi Calm Calm - N/A   Overcast
4:52 AM 59.0 °F 55.9 °F 90% 30.15 in 8.0 mi Calm Calm - 0.00 in Rain Light Rain
5:52 AM 57.9 °F 55.9 °F 93% 30.15 in 8.0 mi Calm Calm - 0.00 in Rain Light Rain
6:16 AM 57.2 °F 57.2 °F 100% 30.15 in 2.0 mi Calm Calm - 0.10 in Rain Rain
6:26 AM 59.0 °F 57.2 °F 94% 30.16 in 5.0 mi Calm Calm - 0.11 in Rain Light Rain
6:52 AM 60.1 °F 57.9 °F 93% 30.16 in 10.0 mi Calm Calm - 0.11 in   Overcast
7:52 AM 60.1 °F 59.0 °F 96% 30.16 in 10.0 mi Calm Calm - N/A   Overcast
8:28 AM 62.6 °F 60.8 °F 94% 30.16 in 10.0 mi Calm Calm - N/A   Overcast
8:52 AM 64.0 °F 61.0 °F 90% 30.16 in 10.0 mi South 5.8 mph - N/A   Overcast
9:35 AM 66.2 °F 62.6 °F 88% 30.15 in 10.0 mi South 10.4 mph - N/A   Overcast
9:52 AM 66.0 °F 63.0 °F 90% 30.16 in 10.0 mi SSW 8.1 mph - N/A   Overcast
10:52 AM 66.9 °F 64.9 °F 93% 30.16 in 9.0 mi SSW 5.8 mph - N/A   Overcast
11:52 AM 69.1 °F 66.0 °F 90% 30.15 in 9.0 mi SW 6.9 mph - 0.00 in Rain Light Rain
12:27 PM 69.8 °F 66.2 °F 88% 30.10 in 10.0 mi South 9.2 mph - 0.01 in Rain Light Rain
12:52 PM 71.1 °F 66.9 °F 87% 30.07 in 10.0 mi South 9.2 mph - 0.01 in   Overcast
1:52 PM 72.0 °F 66.9 °F 84% 30.09 in 10.0 mi WNW 3.5 mph - N/A   Overcast
2:11 PM 73.4 °F 66.2 °F 78% 30.07 in 10.0 mi South 8.1 mph - N/A   Overcast
2:52 PM 73.9 °F 68.0 °F 82% 30.09 in 10.0 mi SW 8.1 mph - N/A   Overcast
3:52 PM 73.9 °F 68.0 °F 82% 30.08 in 8.0 mi SW 6.9 mph - N/A   Overcast
4:52 PM 75.0 °F 69.1 °F 82% 30.07 in 7.0 mi South 6.9 mph - N/A   Overcast
5:52 PM 75.9 °F 69.1 °F 79% 30.07 in 7.0 mi SSW 11.5 mph - N/A   Mostly Cloudy
6:11 PM 75.2 °F 69.8 °F 83% 30.07 in 8.0 mi SSW 9.2 mph - N/A   Scattered Clouds
6:52 PM 73.9 °F 69.1 °F 85% 30.07 in 8.0 mi SSW 6.9 mph - N/A   Partly Cloudy
7:52 PM 73.0 °F 69.1 °F 87% 30.08 in 9.0 mi South 5.8 mph - N/A   Scattered Clouds
8:24 PM 71.6 °F 69.8 °F 94% 30.09 in 9.0 mi South 4.6 mph - N/A   Mostly Cloudy
8:52 PM 71.1 °F 69.1 °F 93% 30.09 in 8.0 mi SSW 3.5 mph - N/A   Scattered Clouds
9:02 PM 71.6 °F 69.8 °F 94% 30.09 in 8.0 mi South 3.5 mph - N/A   Mostly Cloudy
9:20 PM 71.6 °F 68.0 °F 88% 30.09 in 8.0 mi South 3.5 mph - N/A   Scattered Clouds
9:52 PM 70.0 °F 68.0 °F 93% 30.09 in 6.0 mi Calm Calm - N/A   Partly Cloudy
10:52 PM 70.0 °F 68.0 °F 93% 30.09 in 6.0 mi South 3.5 mph - N/A   Clear
11:52 PM 69.1 °F 68.0 °F 96% 30.10 in 4.0 mi Calm Calm - N/A   Scattered Clouds